www.pogodaiklimat.ru

Погода и климат >> Архив погоды >> Китай >> Гуандун >> Мэйсянь


ПОГОДА в Мэйсяне

  • Прогноз погоды в Мэйсяне
  • Монитор погоды в Мэйсяне

АРХИВ ПОГОДЫ в Мэйсяне

Время (UTC), дата Ветер
(напр.,м/с)
 
Видим.   Явления Облачность Т
(С)
Тd
(С)
f
(%)
Тe
(С)
Тes
(С)
Комфортность P
(гПа)
Po
(гПа)
Тmin
(С)
Tmax
(С)
R
(мм)
R24
(мм)
S
(см)
15 12.06 З 1 7000 м слаб. морось н/о +24.5 +23.9 96 +33 +33 очень
душно
1006.2 996.5
18 12.06 З 2 10 км ?/? +24.3 +23.6 96 +33 +33 очень
душно
1004.7 991.3 +25.5 0.6
21 12.06 З 1 3600 м дымка н/о +23.9 +23.5 98 +32 +32 очень
душно
1004.0 994.3
00 13.06 СЗ 1 3400 м слаб. дождь 10/10 1000 м
[]
+24.0 +23.6 98 +33 +33 очень
душно
1004.6 991.2 4
03 13.06 В 1 30 км в посл. час дождь 10/10 600 м
[]
+25.5 +23.7 90 +35 +35 очень
душно
1004.2 994.6
06 13.06 Ю 2 13 км слаб. дождь 10/10 600 м
[]
+26.4 +24.6 90 +37 +37 очень
душно
1002.1 988.8 +23.7 4
09 13.06 Ю 2 30 км {дождь} 10/10 600 м
[]
+27.4 +24.4 84 +39 +39 очень
душно
1000.3 990.8
12 13.06 С 1 7000 м дождь 10/10 600 м
[]
+24.3 +23.6 96 +33 +33 очень
душно
1002.9 989.5 24
15 13.06 З 2 30 км в посл. час дождь н/о +23.8 +22.7 94 +31 +31 очень
душно
1004.3 994.6
18 13.06 СЗ 1 30 км ?/? +23.2 +21.8 92 +31 +31 очень
душно
1002.8 989.5 +28.7 0.7
21 13.06 З 1 30 км н/о +22.5 +21.1 92 +30 +30 очень
душно
1003.1 993.4
00 14.06 СЗ 1 30 км 9/9 600 м
[]
+24.1 +21.2 84 +30 +31 очень
душно
1004.0 990.6 0.7
03 14.06 З 3 30 км 3/3 600 м
[]
+27.6 +20.4 65 +34 +46 очень
душно
1003.9 994.4
06 14.06 З 5 30 км 3/3 600 м
[]
+30.6 +20.5 55 +38 +44 очень
душно
1002.0 988.8 +22.3
09 14.06 С 2 30 км 8/8 600 м
[]
+30.0 +19.9 55 +36 +37 очень
душно
1001.9 992.5
12 14.06 З 1 30 км 9/9 1000 м
[]
+26.5 +19.8 67 +32 +32 очень
душно
1004.0 990.7
15 14.06 СЗ 1 30 км ?/? +24.2 +20.7 81 +30 +30 очень
душно
1005.6 995.9
18 14.06 СЗ 1 23 км н/о +21.9 +20.1 90 +28 +28 душно 1005.2 991.9 +31.2
21 14.06 СЗ 1 15 км ?/? +21.0 +19.8 93 +27 +27 душно 1005.9 996.1
00 15.06 С 1 21 км 6/6 600 м
[]
+24.4 +20.5 79 +30 +33 очень
душно
1007.6 994.2
03 15.06 В 2 30 км 6/6 600 м
[]
+28.5 +21.0 64 +36 +44 очень
душно
1007.1 997.6
06 15.06 С 1 30 км 4/4 600 м
[]
+31.7 +21.5 55 +40 +53 опасность
солнечного
удара
1004.9 991.6 +20.8
09 15.06 Ю 1 30 км 4/4 600 м
[]
+31.4 +21.5 56 +40 +43 очень
душно
1004.1 994.7
12 15.06 Ю 3 30 км 1/1 1000 м
[]
+28.1 +22.5 72 +37 +37 очень
душно
1005.4 992.1
15 15.06 Ю 2 30 км ?/? +26.3 +21.9 77 +34 +34 очень
душно
1007.2 997.6
18 15.06 З 1 25 км н/о +24.0 +22.0 89 +31 +31 очень
душно
1006.7 993.4 +33.1
21 15.06 З 2 19 км ?/? +22.4 +21.3 94 +29 +29 очень
душно
1006.7 997.0
00 16.06 С 2 24 км 3/3
[]
+25.9 +21.9 79 +33 +38 очень
душно
1008.3 995.0
03 16.06 В 2 30 км 3/3 600 м
[]
+30.5 +20.7 56 +38 +52 опасность
солнечного
удара
1007.7 998.2
06 16.06 Ю 1 30 км 8/8 600 м
[]
+32.4 +20.3 49 +39 +43 очень
душно
1006.2 993.0 +22.2
09 16.06 Ю 2 30 км 8/8 600 м
[]
+31.2 +18.5 47 +36 +37 очень
душно
1005.4 996.0
12 16.06 Ю 2 30 км ясно +28.5 +19.4 58 +34 +34 очень
душно
1007.1 993.8
15 16.06 ЮВ 1 30 км ?/? +25.3 +19.4 70 +31 +31 очень
душно
1009.3 999.6
18 16.06 З 2 30 км н/о +22.5 +19.6 84 +29 +29 очень
душно
1008.5 995.2 +33.0
21 16.06 З 2 23 км ?/? +21.7 +19.8 89 +27 +27 душно 1008.6 998.8
00 17.06 З 1 25 км 8/8 600 м
[]
+25.4 +20.6 75 +32 +33 очень
душно
1009.8 996.5
03 17.06 СВ 2 30 км 3/3 600 м
[]
+30.9 +21.9 59 +40 +54 опасность
солнечного
удара
1009.4 999.9
06 17.06 ЮВ 1 30 км 9/9 600 м
[]
+31.5 +23.0 61 +42 +44 опасность
перегрева
1008.5 995.2 +21.5
09 17.06 Ю 2 30 км 9/9 600 м
[]
+31.5 +23.8 64 +43 +43 опасность
перегрева
1007.1 997.7
12 17.06 ЮВ 2 30 км в посл. час дождь 9/9 600 м
[]
+29.1 +23.7 73 +40 +40 очень
душно
1009.0 995.7 0.0
15 17.06 ЮВ 1 30 км н/о +27.3 +24.5 85 +39 +39 очень
душно
1010.2 1000.6
18 17.06 З 1 30 км н/о +26.2 +24.4 90 +37 +37 очень
душно
1008.8 995.6 +32.4
21 17.06 З 1 30 км н/о +25.6 +24.3 93 +36 +36 очень
душно
1008.8 999.2
00 18.06 штиль 0 30 км 9/9 600 м
[]
+28.4 +24.8 81 +41 +41 опасность
перегрева
1009.6 996.3 0.0
03 18.06 ЮВ 1 30 км {дождь} 9/9 600 м
[]
+30.5 +25.5 75 +45 +47 опасность
перегрева
1009.8 1000.3
06 18.06 З 2 30 км в посл. час дождь 8/8 600 м
[]
+33.1 +25.1 63 +47 +51 опасность
перегрева
1007.8 994.6 +25.4 0.0
09 18.06 З 2 6000 м дождь 9/9 600 м
[]
+27.3 +25.3 89 +40 +40 очень
душно
1007.3 997.7
12 18.06 С 1 24 км {дождь} 3/3 1000 м
[]
+26.7 +25.8 95 +40 +40 очень
душно
1008.2 994.9 7
15 18.06 СЗ 2 17 км н/о +25.9 +25.2 96 +37 +37 очень
душно
1009.4 999.8
18 18.06 З 1 8000 м н/о +25.3 +24.7 96 +36 +36 очень
душно
1008.2 995.0 +34.0
21 18.06 З 1 11 км слаб. дождь н/о +25.2 +24.8 98 +36 +36 очень
душно
1008.9 999.2
00 19.06 С 1 16 км 10/10 600 м
[]
+26.7 +25.8 95 +40 +40 очень
душно
1010.0 996.6 0.3
03 19.06 ЮВ 3 30 км 4/4 600 м
[]
+31.0 +25.5 73 +46 +56 опасность
перегрева
1009.1 999.6
06 19.06 Ю 4 30 км в посл. час дождь 8/8 600 м
[]
+29.6 +25.7 80 +44 +47 опасность
перегрева
1007.2 993.9 +24.9 1
09 19.06 В 2 30 км 6/6 600 м
[]
+30.4 +25.6 76 +45 +47 опасность
перегрева
1005.9 996.4
12 19.06 ЮЗ 1 30 км ясно +28.9 +25.5 82 +43 +43 опасность
перегрева
1006.8 993.5

 

Местоположение метеостанции Мэйсянь (Гуандун, Китай): широта 24.30 долгота 116.11 высота над уровнем моря 84 м.

В архиве по умолчанию представлена погода в Мэйсяне за последнюю неделю. Архивные данные за месяц целиком и за предыдущие месяцы, начиная с января 2011 года, Вы можете получить, выбрав интересующий диапазон дат из раскрывающегося списка и нажав кнопку "Ввод!".


*Определитесь, кто Вы:
робот инопланетянин человек

Внимание! Время в таблицах - всемирное. Для получения местного времени необходимо прибавить поправку, которая равна 8 ч.

Смотрите также архив погоды в соседних городах и на ближайших метеорологических станциях:

Погода в Сюньву (Цзяньси, Китай) (86 км)
Погода в Шаньтоу (Гуандун, Китай) (116 км)
Погода в Хэюане (Гуандун, Китай) (151 км)
Погода в Лиянпине (Гуандун, Китай) (165 км)
Погода в Чжанпине (Фуцзянь, Китай) (171 км)
Погода в Чантине (Фуцзянь, Китай) (174 км)
Погода в Шаньвэе (Гуандун, Китай) (186 км)
Погода в Сямэне (Фуцзянь, Китай) (201 км)
Погода в Ганьчжоу (Цзяньси, Китай) (207 км)
Погода в Йонъяне (Фуцзянь, Китай) (224 км)

Пояснения к столбцам:

Ветер - указаны скорость ветра в м/с - средняя за 10 мин, порывы в срок и между сроками (в фигурных скобках) и направление, откуда дует ветер: С - северный, СВ - северо-восточный, В - восточный, ЮВ - юго-восточный, Ю - южный, ЮЗ - юго-западный, З - западный, СЗ - северо-западный.
Видимость - горизонтальная дальность видимости в метрах или километрах. При видимости от 1 до 10 км при отсутствии осадков обычно наблюдается дымка, при ухудшении видимости до 1 км и менее - туман. В сухую погоду видимость может ухудшаться дымом, пылью или мглою.
Явления - указаны атмосферные явления, наблюдавшиеся в срок или в последний час перед сроком; фигурными скобками обозначены явления, наблюдавшиеся между сроками (за 1-3 часа до срока); квадратными скобками обозначены град или гололедные отложения с указанием их диаметра в мм.
Облачность - указаны через наклонную черту общая и нижняя облачность в баллах и высота нижней границы облаков в метрах; квадратными скобками обозначены формы облаков: Ci - перистые, Cs - перисто-слоистые, Cc - перисто-кучевые, Ac - высококучевые, As - высокослоистые, Sc - слоисто-кучевые, Ns - слоисто-дождевые, Cu - кучевые, Cb - кучево-дождевые. Подробнее классификацию облаков см. в Атласе облаков (PDF).
T - Температура воздуха - температура, измеренная на высоте 2 м над землей.
Td - Температура точки росы - температура, при понижении до которой содержащийся в воздухе водяной пар достигнет насыщения.
f - Относительная влажность воздуха - влажноcть воздуха, измеренная на высоте 2 м над землей.
Te - Эффективная температура - температура, которую ощущает одетый по сезону человек в тени. Характеристика душности погоды. При расчете учитывается влияние влажности воздуха и скорости ветра на теплоощущения человека.
Tes - Эффективная температура на солнце - температура, которую ощущает человек, с поправкой на солнечный нагрев. Характеристика знойности погоды. Зависит от высоты солнца над горизонтом, облачности и скорости ветра. Ночью, в пасмурную погоду, а также при ветре 12 м/с и более поправка равна нулю.
P - Атмосферное давление - приведенное к уровню моря атмосферное давление.
Po - Атмосферное давление - измеренное на уровне метеостанции атмосферное давление.
Tmin - Минимальная температура - минимум температуры воздуха на высоте 2 м над землей.
Tmax - Максимальная температура - максимум температуры воздуха на высоте 2 м над землей.
R - Количество осадков - Количество выпавших осадков за период времени, мм. При наведении курсора мыши на число - период времени, за который выпало указанное количество осадков.
R24 - Количество осадков - Количество выпавших осадков за 24 часа, мм.
S - Снежный покров - Высота снежного покрова, см. При наведении курсора мыши на число - состояние снежного покрова и степень покрытия местности в баллах.